This is the latest recevied weather packets stored in our database for station/object N2OCK. If no packets are shown the sender has not sent any weather packets the latest 10 day(s).
| Time | Temp. | Humidity | Pressure | Rain* | Wind** | Luminosity | Snow |
|---|---|---|---|---|---|---|---|
| 1778019392 | 18.89° C | 66% | 1009.6 hPa | 0 mm | - | 141 W/m² | - |
| 1778019089 | 18.89° C | 66% | 1009.8 hPa | 0 mm | - | 156 W/m² | - |
| 1778018787 | 18.89° C | 66% | 1009.4 hPa | 0 mm | - | 162 W/m² | - |
| 1778018484 | 18.89° C | 66% | 1009.4 hPa | 0 mm | - | 183 W/m² | - |
| 1778018181 | 18.89° C | 65% | 1009.6 hPa | 0 mm | - | 200 W/m² | - |
| 1778017879 | 19.44° C | 65% | 1009.7 hPa | 0 mm | - | 202 W/m² | - |
| 1778017577 | 19.44° C | 64% | 1009.5 hPa | 0 mm | - | 212 W/m² | - |
| 1778017274 | 19.44° C | 65% | 1009.6 hPa | 0 mm | - | 234 W/m² | - |
| 1778016972 | 19.44° C | 65% | 1009.3 hPa | 0 mm | - | 252 W/m² | - |
| 1778016668 | 19.44° C | 64% | 1009.5 hPa | 0 mm | - | 265 W/m² | - |
| 1778016364 | 19.44° C | 65% | 1009.3 hPa | 0 mm | - | 248 W/m² | - |
| 1778016062 | 19.44° C | 65% | 1009.3 hPa | 0 mm | - | 297 W/m² | - |
| 1778015759 | 19.44° C | 65% | 1009.2 hPa | 0 mm | - | 291 W/m² | - |
| 1778015456 | 19.44° C | 65% | 1009.2 hPa | 0 mm | - | 307 W/m² | - |
| 1778015152 | 19.44° C | 65% | 1009.3 hPa | 0 mm | - | 296 W/m² | - |
| 1778014850 | 20° C | 65% | 1009.2 hPa | 0 mm | - | 276 W/m² | - |
| 1778014547 | 20° C | 64% | 1009 hPa | 0 mm | - | 316 W/m² | - |
| 1778014244 | 20° C | 65% | 1009.2 hPa | 0 mm | - | 361 W/m² | - |
| 1778013942 | 20° C | 65% | 1009.3 hPa | 0 mm | - | 383 W/m² | - |
| 1778013639 | 20° C | 65% | 1009.2 hPa | 0 mm | - | 372 W/m² | - |
| 1778013335 | 20° C | 65% | 1009.1 hPa | 0 mm | - | 354 W/m² | - |
| 1778013033 | 20° C | 64% | 1009.3 hPa | 0 mm | - | 408 W/m² | - |
| 1778012729 | 20° C | 65% | 1009.3 hPa | 0 mm | - | 439 W/m² | - |
| 1778012424 | 20° C | 64% | 1009.5 hPa | 0 mm | - | 421 W/m² | - |
| 1778012122 | 20.56° C | 64% | 1009.4 hPa | 0 mm | - | 462 W/m² | - |
* Rain latest hour (hover to see other rain measurements)
** Current wind speed in m/s (hover to see current wind gust speed)